| time (UTC) | temp F | wind direction | speed MPH | gust MPH | rain 1hr in | rain 24hr in | rain mn in | humidity % | barometer mb |
| 20260508075715 | 37 | 0.0 | 0.0 | 0.00 | 0.00 | 0.00 | 87 | 1015.6 | |
| 20260508074715 | 38 | 0.0 | 0.0 | 0.00 | 0.00 | 0.00 | 87 | 1015.6 | |
| 20260508073714 | 38 | 90 | 0.0 | 2.0 | 0.00 | 0.00 | 0.00 | 87 | 1015.7 |
| 20260508072714 | 38 | 90 | 0.0 | 1.0 | 0.00 | 0.00 | 0.00 | 88 | 1015.7 |
| 20260508071755 | 38 | 0.0 | 0.0 | 0.00 | 0.00 | 0.00 | 88 | 1015.9 | |
| 20260508070714 | 37 | 0.0 | 0.0 | 0.00 | 0.00 | 0.00 | 88 | 1016.0 | |
| 20260508065734 | 37 | 316 | 2.0 | 3.0 | 0.00 | 0.00 | 0.00 | 88 | 1016.0 |
| 20260508064715 | 38 | 0.0 | 0.0 | 0.00 | 0.00 | 0.00 | 88 | 1016.0 | |
| 20260508063714 | 38 | 0.0 | 0.0 | 0.00 | 0.00 | 0.00 | 88 | 1016.3 | |
| 20260508062714 | 38 | 45 | 2.0 | 3.0 | 0.00 | 0.00 | 0.00 | 88 | 1016.1 |
| 20260508061735 | 38 | 315 | 2.0 | 2.0 | 0.00 | 0.00 | 0.00 | 88 | 1016.3 |
| 20260508060714 | 39 | 0.0 | 0.0 | 0.00 | 0.00 | 0.00 | 88 | 1016.3 | |
| 20260508055714 | 39 | 0.0 | 0.0 | 0.00 | 0.00 | 0.00 | 88 | 1016.3 | |
| 20260508054715 | 39 | 0.0 | 0.0 | 0.00 | 0.00 | 0.00 | 88 | 1016.3 | |
| 20260508053714 | 40 | 0.0 | 0.0 | 0.00 | 0.00 | 0.00 | 87 | 1016.3 | |
| 20260508052714 | 40 | 315 | 1.0 | 2.0 | 0.00 | 0.00 | 0.00 | 86 | 1016.3 |
| 20260508051815 | 40 | 0.0 | 0.0 | 0.00 | 0.00 | 0.00 | 84 | 1016.7 | |
| 20260508050714 | 41 | 0.0 | 0.0 | 0.00 | 0.00 | 0.00 | 83 | 1016.7 | |
| 20260508045714 | 41 | 0.0 | 0.0 | 0.00 | 0.00 | 0.00 | 80 | 1016.7 | |
| 20260508044714 | 41 | 0.0 | 0.0 | 0.00 | 0.00 | 0.00 | 79 | 1017.0 | |
| 20260508043715 | 42 | 0.0 | 0.0 | 0.00 | 0.00 | 0.00 | 79 | 1016.8 | |
| 20260508042715 | 42 | 112 | 0.0 | 1.0 | 0.00 | 0.00 | 0.00 | 77 | 1017.0 |
| 20260508041714 | 43 | 0.0 | 0.0 | 0.00 | 0.00 | 0.00 | 76 | 1016.7 | |
| 20260508040715 | 43 | 358 | 1.0 | 2.0 | 0.00 | 0.00 | 0.00 | 76 | 1017.0 |
| 20260508035714 | 43 | 339 | 1.0 | 4.0 | 0.00 | 0.00 | 0.00 | 75 | 1017.0 |
| 20260508034714 | 43 | 342 | 3.0 | 5.0 | 0.00 | 0.00 | 0.00 | 75 | 1017.0 |
| 20260508033715 | 43 | 330 | 5.0 | 6.0 | 0.00 | 0.00 | 0.00 | 75 | 1017.0 |
| 20260508032735 | 43 | 356 | 4.0 | 5.0 | 0.00 | 0.00 | 0.00 | 75 | 1017.4 |
| 20260508031714 | 43 | 315 | 4.0 | 5.0 | 0.00 | 0.00 | 0.00 | 75 | 1017.4 |
| 20260508030715 | 43 | 336 | 3.0 | 4.0 | 0.00 | 0.00 | 0.00 | 74 | 1017.4 |
| 20260508025714 | 43 | 319 | 5.0 | 8.0 | 0.00 | 0.00 | 0.00 | 73 | 1017.5 |
| 20260508024715 | 44 | 286 | 3.0 | 6.0 | 0.00 | 0.00 | 0.00 | 75 | 1017.4 |
| 20260508023714 | 44 | 315 | 2.0 | 3.0 | 0.00 | 0.00 | 0.00 | 75 | 1017.4 |
| 20260508022714 | 44 | 320 | 3.0 | 5.0 | 0.00 | 0.00 | 0.00 | 75 | 1017.6 |
| 20260508021714 | 44 | 315 | 0.0 | 2.0 | 0.00 | 0.00 | 0.00 | 74 | 1017.7 |
| 20260508020714 | 45 | 315 | 0.0 | 2.0 | 0.00 | 0.00 | 0.00 | 73 | 1017.7 |
| 20260508015734 | 45 | 112 | 0.0 | 1.0 | 0.00 | 0.00 | 0.00 | 73 | 1017.8 |
| 20260508014716 | 45 | 319 | 2.0 | 2.0 | 0.00 | 0.00 | 0.00 | 73 | 1017.9 |
| 20260508013714 | 45 | 118 | 1.0 | 2.0 | 0.00 | 0.00 | 0.00 | 72 | 1018.0 |
| 20260508012714 | 45 | 359 | 3.0 | 3.0 | 0.00 | 0.00 | 0.00 | 72 | 1018.0 |
| 20260508011714 | 45 | 330 | 2.0 | 4.0 | 0.00 | 0.00 | 0.00 | 71 | 1018.0 |
| 20260508010714 | 45 | 315 | 2.0 | 3.0 | 0.00 | 0.00 | 0.00 | 67 | 1018.0 |
| 20260508005714 | 45 | 0.0 | 0.0 | 0.00 | 0.00 | 0.00 | 64 | 1018.2 | |
| 20260508004714 | 46 | 316 | 4.0 | 5.0 | 0.00 | 0.00 | 0.00 | 64 | 1018.2 |
| 20260508003714 | 46 | 27 | 3.0 | 5.0 | 0.00 | 0.00 | 0.00 | 65 | 1018.4 |
| 20260508002714 | 46 | 277 | 2.0 | 3.0 | 0.00 | 0.00 | 0.00 | 64 | 1018.4 |
| 20260508001714 | 46 | 343 | 1.0 | 6.0 | 0.00 | 0.00 | 0.00 | 63 | 1018.4 |
| 20260508000714 | 46 | 171 | 2.0 | 3.0 | 0.00 | 0.00 | 0.00 | 63 | 1018.5 |
| 20260507235714 | 47 | 185 | 4.0 | 8.0 | 0.00 | 0.00 | 0.00 | 62 | 1018.7 |
| 20260507234714 | 47 | 311 | 2.0 | 4.0 | 0.00 | 0.00 | 0.00 | 62 | 1018.7 |
| 20260507233714 | 47 | 210 | 2.0 | 6.0 | 0.00 | 0.00 | 0.00 | 62 | 1018.7 |
| 20260507232734 | 48 | 314 | 5.0 | 6.0 | 0.00 | 0.00 | 0.00 | 62 | 1018.9 |
| 20260507231714 | 47 | 285 | 1.0 | 5.0 | 0.00 | 0.00 | 0.00 | 64 | 1019.1 |
| 20260507230715 | 46 | 342 | 1.0 | 2.0 | 0.00 | 0.00 | 0.00 | 66 | 1019.1 |
| 20260507225735 | 45 | 304 | 4.0 | 6.0 | 0.00 | 0.00 | 0.00 | 66 | 1019.1 |
| 20260507224715 | 45 | 304 | 7.0 | 10.0 | 0.00 | 0.00 | 0.00 | 67 | 1019.1 |
| 20260507223715 | 46 | 315 | 3.0 | 4.0 | 0.00 | 0.00 | 0.00 | 68 | 1019.1 |
| 20260507222714 | 46 | 343 | 1.0 | 4.0 | 0.00 | 0.00 | 0.00 | 68 | 1019.1 |
| 20260507221714 | 46 | 327 | 1.0 | 4.0 | 0.00 | 0.00 | 0.00 | 68 | 1019.1 |
| 20260507220736 | 46 | 357 | 1.0 | 3.0 | 0.00 | 0.00 | 0.00 | 69 | 1019.1 |
| 20260507215714 | 46 | 315 | 0.0 | 2.0 | 0.00 | 0.00 | 0.00 | 68 | 1019.1 |
| 20260507214715 | 46 | 311 | 2.0 | 3.0 | 0.00 | 0.00 | 0.00 | 67 | 1019.1 |
| 20260507213735 | 46 | 315 | 3.0 | 5.0 | 0.00 | 0.00 | 0.00 | 68 | 1019.1 |
| 20260507212714 | 46 | 0.0 | 0.0 | 0.00 | 0.00 | 0.00 | 69 | 1019.2 | |
| 20260507211714 | 46 | 247 | 2.0 | 6.0 | 0.00 | 0.00 | 0.00 | 68 | 1019.2 |
| 20260507210714 | 46 | 336 | 3.0 | 6.0 | 0.00 | 0.00 | 0.00 | 67 | 1019.4 |
| 20260507205714 | 46 | 326 | 1.0 | 2.0 | 0.00 | 0.00 | 0.00 | 67 | 1019.4 |
| 20260507204714 | 46 | 202 | 0.0 | 1.0 | 0.00 | 0.00 | 0.00 | 67 | 1019.4 |
| 20260507203714 | 46 | 60 | 1.0 | 3.0 | 0.00 | 0.00 | 0.00 | 67 | 1019.6 |
| 20260507202714 | 46 | 112 | 1.0 | 2.0 | 0.00 | 0.00 | 0.00 | 67 | 1019.7 |
| 20260507201714 | 46 | 31 | 2.0 | 3.0 | 0.00 | 0.00 | 0.00 | 67 | 1019.7 |
| 20260507200716 | 46 | 170 | 1.0 | 3.0 | 0.00 | 0.00 | 0.00 | 69 | 1019.6 |
| 20260507195716 | 45 | 0.0 | 0.0 | 0.00 | 0.00 | 0.00 | 71 | 1019.7 | |
| 20260507194716 | 45 | 315 | 4.0 | 5.0 | 0.00 | 0.00 | 0.00 | 71 | 1019.7 |
| 20260507193716 | 45 | 225 | 0.0 | 2.0 | 0.00 | 0.00 | 0.00 | 73 | 1019.7 |
| 20260507192717 | 45 | 12 | 1.0 | 2.0 | 0.00 | 0.00 | 0.00 | 73 | 1019.7 |
| 20260507191716 | 44 | 112 | 0.0 | 2.0 | 0.00 | 0.00 | 0.00 | 73 | 1019.7 |
| 20260507190716 | 44 | 0.0 | 0.0 | 0.00 | 0.00 | 0.00 | 73 | 1019.7 | |
| 20260507185716 | 44 | 322 | 0.0 | 1.0 | 0.00 | 0.00 | 0.00 | 74 | 1019.7 |
| 20260507184716 | 44 | 112 | 1.0 | 2.0 | 0.00 | 0.00 | 0.00 | 74 | 1019.7 |
| 20260507183718 | 44 | 76 | 1.0 | 4.0 | 0.00 | 0.00 | 0.00 | 74 | 1019.7 |
| 20260507182717 | 44 | 178 | 4.0 | 6.0 | 0.00 | 0.00 | 0.00 | 76 | 1019.7 |
| 20260507181737 | 44 | 202 | 0.0 | 1.0 | 0.00 | 0.00 | 0.00 | 77 | 1019.7 |
| 20260507180716 | 43 | 166 | 2.0 | 2.0 | 0.00 | 0.00 | 0.00 | 79 | 1019.7 |
| 20260507175737 | 43 | 0.0 | 0.0 | 0.00 | 0.00 | 0.00 | 80 | 1019.7 | |
| 20260507174716 | 43 | 112 | 2.0 | 3.0 | 0.00 | 0.00 | 0.00 | 81 | 1019.6 |
| 20260507173716 | 42 | 112 | 0.0 | 1.0 | 0.00 | 0.00 | 0.00 | 83 | 1019.7 |
| 20260507172736 | 42 | 0.0 | 0.0 | 0.00 | 0.00 | 0.00 | 84 | 1019.6 | |
| 20260507171737 | 42 | 0.0 | 0.0 | 0.00 | 0.00 | 0.00 | 85 | 1019.4 | |
| 20260507170717 | 42 | 45 | 0.0 | 1.0 | 0.00 | 0.00 | 0.00 | 87 | 1019.7 |
| 20260507165716 | 40 | 45 | 2.0 | 3.0 | 0.00 | 0.00 | 0.00 | 88 | 1019.7 |
| 20260507164716 | 39 | 112 | 1.0 | 2.0 | 0.00 | 0.01 | 0.00 | 89 | 1019.7 |
| 20260507163716 | 39 | 0.0 | 0.0 | 0.00 | 0.01 | 0.00 | 89 | 1019.7 | |
| 20260507162716 | 38 | 0.0 | 0.0 | 0.00 | 0.02 | 0.00 | 89 | 1019.7 | |
| 20260507161737 | 38 | 0.0 | 0.0 | 0.00 | 0.02 | 0.00 | 89 | 1019.4 | |
| 20260507160716 | 38 | 0.0 | 0.0 | 0.00 | 0.02 | 0.00 | 89 | 1019.4 | |
| 20260507155716 | 37 | 0.0 | 0.0 | 0.00 | 0.02 | 0.00 | 90 | 1019.2 | |
| 20260507154716 | 37 | 0.0 | 0.0 | 0.00 | 0.02 | 0.00 | 90 | 1019.3 | |
| 20260507153717 | 37 | 0.0 | 0.0 | 0.00 | 0.02 | 0.00 | 90 | 1019.1 | |
| 20260507152716 | 36 | 0.0 | 0.0 | 0.00 | 0.02 | 0.00 | 90 | 1019.1 | |
| 20260507151737 | 36 | 0.0 | 0.0 | 0.00 | 0.02 | 0.00 | 90 | 1019.1 | |
| 20260507150717 | 35 | 0.0 | 0.0 | 0.00 | 0.02 | 0.00 | 90 | 1019.1 | |
| 20260507145716 | 35 | 0.0 | 0.0 | 0.00 | 0.02 | 0.00 | 90 | 1019.1 | |
| 20260507144717 | 35 | 0.0 | 0.0 | 0.00 | 0.02 | 0.00 | 90 | 1019.1 | |
| 20260507143717 | 35 | 0.0 | 0.0 | 0.00 | 0.02 | 0.00 | 90 | 1019.1 | |
| 20260507142736 | 35 | 0.0 | 0.0 | 0.00 | 0.02 | 0.00 | 90 | 1019.1 | |
| 20260507141718 | 35 | 0.0 | 0.0 | 0.00 | 0.02 | 0.00 | 90 | 1019.1 | |
| 20260507140716 | 35 | 0.0 | 0.0 | 0.00 | 0.02 | 0.00 | 90 | 1019.1 | |
| 20260507135737 | 35 | 0.0 | 0.0 | 0.00 | 0.02 | 0.00 | 90 | 1019.1 | |
| 20260507134757 | 35 | 0.0 | 0.0 | 0.00 | 0.02 | 0.00 | 90 | 1019.1 | |
| 20260507133716 | 35 | 0.0 | 0.0 | 0.00 | 0.02 | 0.00 | 90 | 1019.1 | |
| 20260507132716 | 35 | 0.0 | 0.0 | 0.00 | 0.02 | 0.00 | 90 | 1019.1 | |
| 20260507131717 | 34 | 0.0 | 0.0 | 0.00 | 0.02 | 0.00 | 90 | 1019.1 | |
| 20260507130716 | 35 | 0.0 | 0.0 | 0.00 | 0.02 | 0.00 | 90 | 1018.9 | |
| 20260507125757 | 35 | 0.0 | 0.0 | 0.00 | 0.02 | 0.00 | 90 | 1018.7 | |
| 20260507124718 | 35 | 0.0 | 0.0 | 0.00 | 0.02 | 0.00 | 89 | 1018.7 | |
| 20260507123716 | 35 | 0.0 | 0.0 | 0.00 | 0.02 | 0.00 | 89 | 1018.7 | |
| 20260507122716 | 35 | 0.0 | 0.0 | 0.00 | 0.02 | 0.00 | 89 | 1018.7 | |
| 20260507121737 | 35 | 0.0 | 0.0 | 0.00 | 0.02 | 0.00 | 89 | 1018.7 | |
| 20260507120716 | 35 | 337 | 1.0 | 1.0 | 0.00 | 0.02 | 0.00 | 89 | 1018.7 |
| 20260507115718 | 35 | 0.0 | 0.0 | 0.00 | 0.02 | 0.00 | 89 | 1018.8 | |
| 20260507114716 | 35 | 0.0 | 0.0 | 0.00 | 0.02 | 0.00 | 89 | 1019.1 | |
| 20260507113717 | 35 | 0.0 | 0.0 | 0.00 | 0.02 | 0.00 | 89 | 1018.8 | |
| 20260507112716 | 35 | 337 | 0.0 | 1.0 | 0.00 | 0.02 | 0.00 | 89 | 1018.9 |
| 20260507111717 | 36 | 0.0 | 0.0 | 0.00 | 0.02 | 0.00 | 89 | 1018.8 | |
| 20260507110716 | 36 | 0.0 | 0.0 | 0.00 | 0.02 | 0.00 | 89 | 1019.1 | |
| 20260507105716 | 36 | 0.0 | 0.0 | 0.00 | 0.02 | 0.00 | 88 | 1019.1 | |
| 20260507104716 | 36 | 0.0 | 0.0 | 0.00 | 0.02 | 0.00 | 88 | 1019.1 | |
| 20260507103716 | 36 | 0.0 | 0.0 | 0.00 | 0.02 | 0.00 | 88 | 1019.1 | |
| 20260507102717 | 36 | 0.0 | 0.0 | 0.00 | 0.02 | 0.00 | 88 | 1019.1 | |
| 20260507101736 | 36 | 337 | 1.0 | 2.0 | 0.00 | 0.02 | 0.00 | 89 | 1019.1 |
| 20260507100716 | 37 | 0.0 | 0.0 | 0.00 | 0.02 | 0.00 | 89 | 1019.1 | |
| 20260507095737 | 37 | 337 | 2.0 | 2.0 | 0.00 | 0.02 | 0.00 | 89 | 1019.1 |
| 20260507094716 | 37 | 0.0 | 0.0 | 0.00 | 0.02 | 0.00 | 89 | 1019.1 | |
| 20260507093717 | 37 | 337 | 0.0 | 1.0 | 0.00 | 0.02 | 0.00 | 88 | 1019.1 |
| 20260507092716 | 37 | 0.0 | 0.0 | 0.00 | 0.02 | 0.00 | 88 | 1019.1 | |
| 20260507091737 | 37 | 0.0 | 0.0 | 0.00 | 0.02 | 0.00 | 88 | 1018.8 | |
| 20260507090716 | 37 | 0.0 | 0.0 | 0.00 | 0.02 | 0.00 | 87 | 1018.9 | |
| 20260507085717 | 38 | 0.0 | 0.0 | 0.00 | 0.02 | 0.00 | 87 | 1018.8 | |
| 20260507084737 | 38 | 315 | 1.0 | 1.0 | 0.00 | 0.02 | 0.00 | 87 | 1018.7 |
| 20260507083716 | 38 | 315 | 2.0 | 3.0 | 0.00 | 0.02 | 0.00 | 87 | 1018.7 |
| 20260507082716 | 38 | 0.0 | 0.0 | 0.00 | 0.02 | 0.00 | 87 | 1018.6 | |
| 20260507081717 | 38 | 0.0 | 0.0 | 0.00 | 0.02 | 0.00 | 87 | 1018.7 | |
| 20260507080717 | 38 | 0.0 | 0.0 | 0.00 | 0.02 | 0.00 | 87 | 1018.4 |